Regional Weather Roundup
Issued by NWS

Home | Current Version | Previous Version | Graphics & Text | Print | Product List | Glossary On
Versions: 1 2 3 4 5 6 7 8 9 10 11 12 13 14 15 16 17 18 19 20 21 22 23 24 25 26 27 28 29 30 31 32 33 34 35 36 37 38 39 40 41 42 43 44 45 46 47 48 49 50
000
ASUS43 KDMX 280607
RWRIA

WEATHER ROUNDUP FOR IOWA
NATIONAL WEATHER SERVICE DES MOINES IA
100 AM CDT FRI AUG 28 2015

NOTE: "FAIR" INDICATES FEW OR NO CLOUDS BELOW 12,000 FEET WITH NO
SIGNIFICANT WEATHER AND/OR OBSTRUCTIONS TO VISIBILITY.

* - THESE STATIONS ARE NOT NWS STATIONS...THUS NOT UNDER NWS
QUALITY CONTROL.  THEY ALSO DO NOT REPORT WEATHER SUCH
AS PRECIPITATION OR FOG.

IAZ001>003-012>014-020>022-031>034-043>046-280700-
   NORTHWEST IOWA

CITY           SKY/WX    TMP DP  RH WIND       PRES   REMARKS
CARROLL *      CLEAR     64  63  94 E7        30.01R
CHEROKEE *     LGT RAIN  64  64  97 CALM      30.02R
DENISON *      PTCLDY    64  63  94 E6        29.98R
LE MARS *      LGT RAIN  66  64  94 E8        29.99F
ORANGE CITY *  LGT RAIN  64  63  94 E7        30.00F
SIOUX CITY     RAIN      66  63  90 E9        29.97R
6HR MIN TEMP:  66; 6HR MAX TEMP:  77; 6HR PCP:  0.24;

SPENCER        LGT RAIN  64  61  90 SE8       30.02F
6HR MIN TEMP:  64; 6HR MAX TEMP:  67; 6HR PCP:  0.63;

STORM LAKE *   MOCLDY    63  63 100 SE8G14    30.02R
$$

IAZ055>058-069>071-079>083-090>094-280700-
   SOUTHWEST IOWA

CITY           SKY/WX    TMP DP  RH WIND       PRES   REMARKS
ATLANTIC *     PTCLDY    66  64  94 E6        29.97S
AUDUBON *      CLEAR     63  61  94 SE3       30.00S
CLARINDA *     PTCLDY    68  64  88 S8G15     29.99R
COUNCIL BLFS * LGT RAIN  66  66 100 SE7       29.98R
CRESTON *      CLEAR     64  61  88 SE9       30.02S
HARLAN  *      PTCLDY    64  64 100 CALM      30.04R
LAMONI           N/A     67  60  78 SE9       30.02S
6HR MIN TEMP:  65; 6HR MAX TEMP:  72;

RED OAK *      CLOUDY    70  66  88 SE9       29.98R
SHENANDOAH *   CLOUDY    70  66  88 SE8       29.96R
$$

IAZ047>049-059>061-072>074-084-280700-
   CENTRAL IOWA

CITY           SKY/WX    TMP DP  RH WIND       PRES   REMARKS
AMES           MOCLDY    64  62  93 E5        30.04R
6HR MIN TEMP:  64; 6HR MAX TEMP:  70; 6HR PCP:  0.01;

ANKENY *       PTCLDY    66  61  82 E8        30.02S
CHARITON *     CLOUDY    64  61  88 SE9G15    30.03F
DES MOINES     MOCLDY    67  59  75 SE10      30.00F
6HR MIN TEMP:  67; 6HR MAX TEMP:  73;

GRINNELL*        N/A     63  59  88 SE12      30.06S
KNOXVILLE *    PTCLDY    64  59  82 SE10      30.03S
MARSHALLTOWN     N/A     64  59  83 SE9       30.05R
6HR MIN TEMP:  63; 6HR MAX TEMP:  69;

PELLA *          N/A     63  62  95 SE9       30.06S
PERRY *          N/A     66  63  88 SE7       30.03R
$$

IAZ004>006-015-016-023>025-035-036-280700-
   NORTH CENTRAL IOWA

CITY           SKY/WX    TMP DP  RH WIND       PRES   REMARKS
ALGONA *       DRIZZLE   64  63  94 SE10G17   30.03F
CLARION *      LGT RAIN  63  61  94 SE6       30.07F
ESTHERVILLE    LGT RAIN  63  62  97 S10       30.02F
6HR MIN TEMP:  63; 6HR MAX TEMP:  67; 6HR PCP:  0.36;

FORT DODGE *   MOCLDY    63  59  88 E9        30.05F
MASON CITY     LGT RAIN  63  61  93 SW9       30.11R
6HR MIN TEMP:  63; 6HR MAX TEMP:  67; 6HR PCP: TRACE;

FOREST CITY *  LGT RAIN  63  61  94 S8        30.08R
IOWA FALLS *   CLOUDY    64  61  88 S5        30.09R
$$

IAZ007>011-017>019-026>030-037>042-050>054-066-280700-
   NORTHEAST IOWA

CITY           SKY/WX    TMP DP  RH WIND       PRES   REMARKS
CEDAR RAPIDS     N/A     62  60  93 SE6       30.08R
6HR MIN TEMP:  59; 6HR MAX TEMP:  70;

CHARLES CITY * CLOUDY    64  61  88 SE8       30.07R
CLINTON *        N/A     63  57  82 SE7       30.12F
DECORAH *      PTCLDY    63  59  88 VRB5      30.05F
DUBUQUE          N/A     63  59  87 S7        30.09F
6HR MIN TEMP:  61; 6HR MAX TEMP:  68;

MONTICELLO *   CLEAR     63  61  94 VRB7      30.07F
OELWEIN *        N/A     63  59  88 S8        30.07R
WATERLOO         N/A     65  59  81 S10       30.05R
6HR MIN TEMP:  62; 6HR MAX TEMP:  69;

$$

IAZ064-065-067-068-078-280700-
   EAST CENTRAL IOWA

CITY           SKY/WX    TMP DP  RH WIND       PRES   REMARKS
DAVENPORT        N/A     63  59  87 SE7       30.08F
6HR MIN TEMP:  60; 6HR MAX TEMP:  69;

IOWA CITY        N/A     61  58  90 CALM      30.09S
6HR MIN TEMP:  60; 6HR MAX TEMP:  71;

MT. PLEASANT *   N/A     62  58  86 SE5       30.08F
MUSCATINE *    CLEAR     63  59  88 S5        30.08F
QUAD CITIES      N/A     62  58  86 E6        30.08F
6HR MIN TEMP:  61; 6HR MAX TEMP:  70;

$$

IAZ062-063-075>077-085>089-095>099-280700-
   SOUTHEAST IOWA

CITY           SKY/WX    TMP DP  RH WIND       PRES   REMARKS
BURLINGTON       N/A     62  59  90 E5        30.08F
6HR MIN TEMP:  62; 6HR MAX TEMP:  71;

FAIRFIELD *    MOCLDY    61  57  88 S6        30.09R
FORT MADISON * CLEAR     63  59  88 SE6       30.09S
KEOKUK *       CLEAR     63  59  88 SE5       30.08S
OSKALOOSA *      N/A     60  58  94 SE6       30.07S
CENTERVILLE *  CLEAR     59  59 100 SE8       30.07F
OTTUMWA          N/A     64  59  83 SE12      30.05F
6HR MIN TEMP:  62; 6HR MAX TEMP:  72; 6HR PCP: TRACE;

WASHINGTON *     N/A    N/A N/A N/A MISG        N/A
$$

ABBREVIATIONS USED IN REMARKS
   TC - TEMPERATURES IN CELSIUS
  WCI - WIND CHILL INDEX
   HX - HEAT INDEX
  VSB - VISIBILITY
$$



USA.gov is the U.S. government's official web portal to all federal, state and local government web resources and services.